Terminal Aerodrome Forecast
Issued by NWS Dodge City, KS

Home | Current Version | Previous Version | Graphics & Text | Print | Product List | Glossary Off
Versions: 1 2 3 4 5 6 7 8 9 10 11 12 13 14 15 16 17 18 19 20 21 22 23 24 25 26 27 28 29 30 31 32 33 34 35 36

000
FTUS43 KDDC 291100
TAFDDC
TAF
KDDC 291136Z 2912/3012 VRB06KT P6SM SCT200
     FM291600 19014G18KT P6SM SCT200 PROB30 3002/3006 -TSRA OVC020CB
     FM300600 09014KT P6SM -RA OVC010
      TEMPO 3006/3010 3SM TSRA OVC003CB=

USA.gov is the U.S. government's official web portal to all federal, state and local government web resources and services.